This demonstration page uses our WeatherBlox Daily Observations layout. Learn more.

40.92945, -100.16068

Hourly Observations for April 22, 2017

Temp ( °F °C ) Dew Point ( °F °C ) Humidity (%) Winds ( mph kmh ) Pressure ( in mb ) Visibility ( mi km ) Precip ( " mm )
12:15 am 00:15 Clear 39 3.8 32 0.1 77 77 NNE 6 9 30.3 1026 10 16.0934 0 0
12:35 am 00:35 Clear 38 3.2 32 0.1 80 80 NNE 7 11 30.3 1026 10 16.0934 0 0
12:55 am 00:55 Clear 38 3.5 33 0.3 80 80 NNE 6 9 30.3 1026 10 16.0934 0 0
1:15 am 01:15 Clear 37 2.6 32 0 83 83 Calm 30.33 1027 10 16.0934 0 0
1:35 am 01:35 Clear 37 2.7 32 0 83 83 NNE 7 11 30.3 1026 10 16.0934 0 0
1:55 am 01:55 Clear 35 1.8 32 -0.1 87 87 N 8 13 30.33 1027 10 16.0934 0 0
2:15 am 02:15 Clear 35 1.6 32 -0.2 88 88 N 6 9 30.33 1027 10 16.0934 0 0
2:35 am 02:35 Clear 35 1.4 32 -0.2 89 89 N 6 9 30.33 1027 10 16.0934 0 0
2:55 am 02:55 Clear 34 1 31 -0.5 90 90 NNW 3 6 30.33 1027 10 16.0934 0 0
3:15 am 03:15 Clear 34 1.3 31 -0.5 88 88 Calm 30.33 1027 10 16.0934 0 0
3:35 am 03:35 Clear 35 1.5 32 -0.2 89 89 NNW 3 6 30.33 1027 10 16.0934 0 0
3:55 am 03:55 Clear 33 0.8 31 -0.5 91 91 WNW 6 9 30.33 1027 10 16.0934 0 0
4:15 am 04:15 Clear 33 0.5 31 -0.8 91 91 WNW 5 7 30.33 1027 10 16.0934 0 0
4:35 am 04:35 Clear 32 0 30 -1.3 91 91 NW 5 7 30.33 1027 10 16.0934 0 0
4:55 am 04:55 Clear 32 0 29 -1.5 90 90 Calm 30.33 1027 10 16.0934 0 0
5:15 am 05:15 Clear 32 0 30 -1.3 91 91 WNW 5 7 30.33 1027 10 16.0934 0 0
5:35 am 05:35 Clear 32 -0.2 29 -1.5 91 91 WNW 6 9 30.33 1027 10 16.0934 0 0
5:55 am 05:55 Clear 32 0 30 -1 93 93 W 7 11 30.33 1027 10 16.0934 0 0
6:15 am 06:15 Clear 32 0 30 -1 93 93 WNW 7 11 30.33 1027 10 16.0934 0 0
6:35 am 06:35 Clear 32 0.1 30 -1 92 92 WNW 7 11 30.36 1028 10 16.0934 0 0
6:55 am 06:55 Partly Cloudy 32 0.2 31 -0.8 93 93 WNW 6 9 30.36 1028 10 16.0934 0 0
7:15 am 07:15 Mostly Cloudy 33 0.8 32 -0.2 93 93 WNW 5 7 30.36 1028 10 16.0934 0 0
7:35 am 07:35 Cloudy 35 1.8 33 0.4 91 91 NW 5 7 30.36 1028 10 16.0934 0 0
7:55 am 07:55 Mostly Cloudy 38 3.6 35 1.7 88 88 WNW 5 7 30.36 1028 10 16.0934 0 0
8:15 am 08:15 Partly Cloudy 39 4 35 1.5 84 84 WNW 3 6 30.36 1028 10 16.0934 0 0
8:35 am 08:35 Mostly Cloudy 40 4.5 35 1.8 83 83 WNW 6 9 30.36 1028 10 16.0934 0 0
8:55 am 08:55 Mostly Cloudy 41 5.2 36 2.1 81 81 WNW 6 9 30.36 1028 10 16.0934 0 0
9:15 am 09:15 Cloudy 44 6.5 37 2.6 76 76 NW 7 11 30.33 1027 10 16.0934 0 0
9:35 am 09:35 Cloudy 46 8 38 3.2 72 72 WNW 6 9 30.33 1027 10 16.0934 0 0
9:55 am 09:55 Cloudy 50 9.8 39 3.9 67 67 WNW 6 9 30.3 1026 10 16.0934 0 0
10:15 am 10:15 Mostly Cloudy 50 10 38 3.4 64 64 NNW 3 6 30.3 1026 10 16.0934 0 0
10:35 am 10:35 Cloudy 50 10.2 38 3.3 63 63 NNW 3 6 30.3 1026 10 16.0934 0 0
10:55 am 10:55 Cloudy 51 10.6 37 2.9 59 59 Calm 30.3 1026 10 16.0934 0 0
11:15 am 11:15 Cloudy 51 10.6 37 2.7 58 58 NW 5 7 30.3 1026 10 16.0934 0 0
11:35 am 11:35 Cloudy 53 11.5 36 2.3 54 54 WNW 5 7 30.3 1026 10 16.0934 0 0
11:55 am 11:55 Mostly Cloudy 55 12.5 34 1 46 46 NE 7 11 30.3 1026 10 16.0934 0 0
12:15 pm 12:15 Mostly Cloudy 54 12.3 32 0.2 44 44 NNW 5 7 30.3 1026 10 16.0934 0 0
12:35 pm 12:35 Mostly Cloudy 54 12.3 34 1.1 47 47 N 6 9 30.3 1026 10 16.0934 0 0
12:55 pm 12:55 Partly Cloudy 56 13.3 30 -1 38 38 NE 6 9 30.27 1025 10 16.0934 0 0
1:15 pm 13:15 Sunny 58 14.4 32 0.1 38 38 NE 9 15 30.27 1025 10 16.0934 0 0
1:35 pm 13:35 Partly Cloudy 59 14.8 33 0.3 37 37 NNE 5 7 30.24 1024 10 16.0934 0 0
1:55 pm 13:55 Mostly Cloudy 58 14.3 32 0.2 38 38 NE 5 7 30.24 1024 10 16.0934 0 0
2:15 pm 14:15 Partly Cloudy 59 14.8 33 0.3 37 37 NNW 3 6 30.24 1024 10 16.0934 0 0
2:35 pm 14:35 Sunny 59 14.9 29 -1.6 32 32 WSW 5 7 30.24 1024 10 16.0934 0 0
2:55 pm 14:55 Partly Cloudy 61 15.9 32 0 34 34 N 8 13 30.21 1023 10 16.0934 0 0
3:15 pm 15:15 Partly Cloudy 60 15.8 30 -1.3 31 31 NE 3 6 30.21 1023 10 16.0934 0 0
3:35 pm 15:35 Sunny 62 16.7 31 -0.5 31 31 N 7 11 30.18 1022 10 16.0934 0 0
3:55 pm 15:55 Sunny 61 16.1 29 -1.4 30 30 SE 3 6 30.18 1022 10 16.0934 0 0
4:15 pm 16:15 Sunny 62 16.5 30 -1 30 30 N 3 6 30.18 1022 10 16.0934 0 0
4:35 pm 16:35 Sunny 62 16.7 28 -2.1 28 28 Calm 30.18 1022 10 16.0934 0 0
4:55 pm 16:55 Hazy 62 16.8 30 -1.2 29 29 NNE 7 11 30.15 1021 3 4.82802 0 0
5:15 pm 17:15 Sunny 62 16.8 28 -2.2 27 27 Calm 30.15 1021 10 16.0934 0 0
5:35 pm 17:35 Sunny 63 17 28 -2 27 27 W 5 7 30.15 1021 10 16.0934 0 0
5:55 pm 17:55 Sunny 62 16.9 31 -0.7 30 30 NNE 7 11 30.15 1021 10 16.0934 0 0
6:15 pm 18:15 Sunny 62 16.5 29 -1.9 29 29 ENE 3 6 30.15 1021 10 16.0934 0 0
6:35 pm 18:35 Sunny 62 16.5 28 -2.1 28 28 Calm 30.15 1021 10 16.0934 0 0
6:55 pm 18:55 Sunny 62 16.5 28 -2.1 28 28 Calm 30.15 1021 10 16.0934 0 0
7:15 pm 19:15 Sunny 61 15.9 29 -1.6 30 30 Calm 30.15 1021 10 16.0934 0 0
7:35 pm 19:35 Sunny 60 15.3 32 0 35 35 Calm 30.15 1021 10 16.0934 0 0
7:55 pm 19:55 Sunny 60 15.6 28 -2 30 30 Calm 30.15 1021 10 16.0934 0 0
8:15 pm 20:15 Sunny 59 14.8 29 -1.7 32 32 E 3 6 30.18 1022 10 16.0934 0 0
8:35 pm 20:35 Mostly Cloudy with Haze 57 13.9 28 -2.1 33 33 ESE 3 6 30.18 1022 0.5 0.80467 0 0
8:55 pm 20:55 Clear 56 13.5 28 -2.5 33 33 E 5 7 30.18 1022 10 16.0934 0 0
9:15 pm 21:15 Clear 50 9.8 28 -2.1 44 44 E 3 6 30.21 1023 10 16.0934 0 0
9:35 pm 21:35 Mostly Cloudy with Haze 49 9.6 29 -1.5 46 46 ESE 3 6 30.21 1023 1 1.60934 0 0
9:55 pm 21:55 Mostly Cloudy with Haze 49 9.7 29 -1.5 46 46 ESE 6 9 30.24 1024 1 1.60934 0 0
10:15 pm 22:15 Hazy 53 11.5 28 -2.1 39 39 SE 5 7 30.21 1023 2 3.21868 0 0
10:35 pm 22:35 Clear 45 7 28 -2 53 53 SSE 6 9 30.24 1024 10 16.0934 0 0
10:55 pm 22:55 Clear 48 8.8 29 -1.8 48 48 SE 7 11 30.21 1023 10 16.0934 0 0
11:15 pm 23:15 Clear 47 8.1 30 -0.9 53 53 SSE 6 9 30.24 1024 10 16.0934 0 0
11:35 pm 23:35 Clear 45 7.3 30 -1.1 56 56 SSE 6 9 30.24 1024 10 16.0934 0 0
11:55 pm 23:55 Clear 44 6.4 29 -1.5 57 57 S 6 9 30.24 1024 10 16.0934 0 0

Powered by AerisWeather